Miscellaneous Local Product
Issued by NWS Hastings, NE

Home | Current Version | Previous Version | Graphics & Text | Print | Product List | Glossary On
Versions: 1 2 3 4 5 6 7 8 9 10 11 12 13 14 15 16 17 18 19 20 21 22 23 24 25 26 27 28 29 30 31 32 33 34 35 36 37 38 39 40 41 42 43 44 45 46 47 48 49 50
136
AXUS43 KGID 260802
MISGRI

GID CWA HOURLY WEATHER ROUNDUP
NATIONAL WEATHER SERVICE HASTINGS NE
300 AM CDT SUN MAR 26 2017

NOTE: "FAIR" INDICATES FEW OR NO CLOUDS BELOW 12,000 FEET WITH NO
SIGNIFICANT WEATHER AND/OR OBSTRUCTIONS TO VISIBILITY.

...SOUTH CENTRAL NEBRASKA...

CITY           SKY/WX    TMP DP  RH WIND       PRES   REMARKS
GRAND ISLAND   CLOUDY    38  38 100 E3        29.90F FOG
HASTINGS       CLOUDY    39  37  92 CALM      29.91S FOG
KEARNEY        CLOUDY    39  36  87 CALM      29.92R
ORD            FOG       39  37  92 CALM      29.90R VSB 3/4
YORK           CLOUDY    37  37 100 CALM      29.90S FOG
AURORA         CLOUDY    38  38 100 NE3       29.90S FOG
LEXINGTON      CLOUDY    41  39  93 SE3       29.90S FOG
HOLDREGE       CLOUDY    39  38  97 CALM      29.90S FOG
HEBRON         CLOUDY    39  38  97 CALM      29.90F FOG

...NEBRASKA PANHANDLE...

CITY           SKY/WX    TMP DP  RH WIND       PRES   REMARKS
CHADRON        CLOUDY    51  32  48 S3        29.80R
ALLIANCE       CLOUDY    36  28  73 SE8       29.81S WCI  30
SCOTTSBLUFF    CLOUDY    45  31  58 E12       29.81S
SIDNEY         CLOUDY    42  30  62 S9        29.83F

...WESTERN AND NORTH CENTRAL NEBRASKA...

CITY           SKY/WX    TMP DP  RH WIND       PRES   REMARKS
VALENTINE      CLOUDY    40  37  89 SE8       29.87S WCI  34
AINSWORTH      CLOUDY    38  38 100 S8        29.88F FOG     WCI  33
ONEILL         FOG       39  39  99 CALM      29.91R VSB 1/2
BROKEN BOW     CLOUDY    40  39  97 S5        29.89S
IMPERIAL       FOG       39  38  96 SE7       29.86F VSB 1/4 WCI  34
NORTH PLATTE   CLOUDY    41  38  89 SE5       29.88F
MCCOOK         FOG       40  40 100 S6        29.89F VSB 1/2

...EASTERN NEBRASKA...

CITY           SKY/WX    TMP DP  RH WIND       PRES   REMARKS
NORFOLK        FOG       37  36  96 NE5       29.89F VSB 3/4 WCI  33
SO SIOUX CITY  CLOUDY    38  38 100 N6        29.92F FOG     WCI  33
TEKAMAH        CLOUDY    40  38  93 N8        29.91S WCI  34
COLUMBUS       CLOUDY    37  36  93 NE6       29.90F WCI  33
ALBION         CLOUDY    39  38  94 CALM      29.90S FOG
OMAHA EPPLEY   LGT RAIN  41  37  86 NW7       29.90S
OFFUTT AFB     CLOUDY    41  38  91 N6        29.89S
MILLARD        CLOUDY    42  40  93 N3        29.90F
LINCOLN        CLOUDY    40  39  97 N6        29.91F
NEBRASKA CITY  CLOUDY    40  40 100 N6        29.89S FOG
BEATRICE       CLOUDY    40  40  99 N6        29.90R FOG
FALLS CITY     CLOUDY    42  40  92 N7        29.88S

...NORTHERN KANSAS...

CITY           SKY/WX    TMP DP  RH WIND       PRES   REMARKS
GOODLAND       CLEAR     38  37  97 S10       29.83F WCI  31
HILL CITY      CLOUDY    41  40  96 E3        29.91S
NORTON         CLOUDY    39  37  93 SE5       29.89F FOG
PHILLIPSBURG   CLOUDY    43  41  93 E3        29.92S
HAYS             N/A     42  39  89 SE6       29.91S
RUSSELL        CLOUDY    41  39  93 SE5       29.91R FOG
CONCORDIA      CLOUDY    40  40 100 CALM      29.91S FOG
SALINA         CLOUDY    44  42  93 W3        29.93S FOG
TOPEKA         CLOUDY    44  42  93 NW5       29.89S



USA.gov is the U.S. government's official web portal to all federal, state and local government web resources and services.